Gwinner, ND

10:49 PM CDT on April 19, 2018 (GMT -0500)
Gwinner-melroe

Weather History for KGWR - September, 2012

Change the Weather History Date:

Tuesday, September 11, 2012

  Actual Average (KP67) Record (KP67)
Temperature  
Mean Temperature 68 °F -  
Max Temperature 80 °F 74 °F 75 °F (1997)
Min Temperature 57 °F 49 °F 43 °F (1996)
Cooling Degree Days 4    
Growing Degree Days 18 (Base 50)    
Moisture  
Dew Point 42 °F    
Average Humidity 41    
Maximum Humidity 82    
Minimum Humidity 21    
Precipitation  
Precipitation 0.00 in - - ()
Sea Level Pressure  
Sea Level Pressure 29.73 in    
Wind  
Wind Speed 10 mph (NNW)    
Max Wind Speed 22 mph    
Max Gust Speed 29 mph    
Visibility 10 miles    
Events      
Averages and records for this station are not official NWS values.
T = Trace of Precipitation, MM = Missing Value Source: NWS Daily Summary

Daily Weather History Graph

Daily Weather History Graph

Search for Another Location

Airport or City:

Astronomy

Sep. 11, 2012 Rise Set
Actual Time 7:04 AM CDT 7:48 PM CDT
Civil Twilight 6:33 AM CDT 8:19 PM CDT
Nautical Twilight 5:57 AM CDT 8:55 PM CDT
Astronomical Twilight 5:19 AM CDT 9:32 PM CDT
Moon 2:10 AM CDT (9/11) 5:10 PM CDT (9/11)
Length of Visible Light 13h 45m
Length of Day
12h 44m
Waning Crescent, 21% of the Moon is Illuminated
Sep 11
Waning Crescent
Sep 15
New
Sep 22
First Quarter
Sep 29
Full
Oct 8
Last Quarter

Hourly Weather History & Observations

Time (CDT) Temp. Dew Point Humidity Pressure Visibility Wind Dir Wind Speed Gust Speed Precip Events Conditions
12:15 AM 68.0 °F 46.4 °F 46% 29.64 in 10.0 mi SSW 9.2 mph - 0.00 in   Clear
12:35 AM 66.2 °F 48.2 °F 52% 29.64 in 10.0 mi SSW 8.1 mph - 0.00 in   Clear
12:55 AM 66.2 °F 46.4 °F 49% 29.64 in 10.0 mi SSW 8.1 mph - 0.00 in   Clear
1:15 AM 66.2 °F 46.4 °F 49% 29.64 in 10.0 mi SW 8.1 mph - 0.00 in   Clear
1:35 AM 66.2 °F 46.4 °F 49% 29.64 in 10.0 mi SW 10.4 mph - 0.00 in   Clear
1:55 AM 66.2 °F 46.4 °F 49% 29.64 in 10.0 mi SW 9.2 mph - 0.00 in   Clear
2:15 AM 66.2 °F 46.4 °F 49% 29.63 in 10.0 mi SSW 10.4 mph - 0.00 in   Clear
2:35 AM 68.0 °F 46.4 °F 46% 29.62 in 10.0 mi SSW 9.2 mph - 0.00 in   Clear
2:55 AM 69.8 °F 48.2 °F 46% 29.61 in 10.0 mi SSW 10.4 mph - 0.00 in   Clear
3:15 AM 71.6 °F 46.4 °F 41% 29.62 in 10.0 mi WSW 8.1 mph - 0.00 in   Clear
3:35 AM 69.8 °F 46.4 °F 43% 29.61 in 10.0 mi SSW 8.1 mph - 0.00 in   Clear
4:15 AM 69.8 °F 46.4 °F 43% 29.61 in 10.0 mi Calm Calm - 0.00 in   Clear
4:35 AM 69.8 °F 48.2 °F 46% 29.60 in 10.0 mi SSW 9.2 mph - 0.00 in   Clear
4:55 AM 69.8 °F 48.2 °F 46% 29.60 in 10.0 mi South 6.9 mph - 0.00 in   Clear
5:15 AM 71.6 °F 46.4 °F 41% 29.60 in 10.0 mi South 6.9 mph - 0.00 in   Clear
5:35 AM 71.6 °F 48.2 °F 43% 29.60 in 10.0 mi WNW 9.2 mph - 0.00 in   Clear
5:55 AM 69.8 °F 48.2 °F 46% 29.61 in 10.0 mi NNW 6.9 mph - 0.00 in   Clear
6:15 AM 64.4 °F 48.2 °F 56% 29.61 in 10.0 mi North 3.5 mph - 0.00 in   Clear
6:35 AM 60.8 °F 48.2 °F 63% 29.60 in 10.0 mi NE 3.5 mph - 0.00 in   Clear
6:55 AM 57.2 °F 50.0 °F 77% 29.61 in 10.0 mi North 5.8 mph - 0.00 in   Clear
7:15 AM 57.2 °F 50.0 °F 77% 29.62 in 10.0 mi Calm Calm - 0.00 in   Clear
7:35 AM 57.2 °F 51.8 °F 82% 29.63 in 10.0 mi North 3.5 mph - 0.00 in   Clear
7:55 AM 60.8 °F 51.8 °F 72% 29.63 in 10.0 mi NNE 5.8 mph - 0.00 in   Clear
8:15 AM 60.8 °F 51.8 °F 72% 29.62 in 10.0 mi Calm Calm - 0.00 in   Clear
8:35 AM 62.6 °F 51.8 °F 68% 29.61 in 10.0 mi Calm Calm - 0.00 in   Clear
8:55 AM 62.6 °F 51.8 °F 68% 29.61 in 10.0 mi Calm Calm - 0.00 in   Clear
9:15 AM 64.4 °F 51.8 °F 64% 29.63 in 10.0 mi North 5.8 mph - 0.00 in   Clear
9:35 AM 64.4 °F 51.8 °F 64% 29.63 in 10.0 mi NNE 5.8 mph - 0.00 in   Clear
9:55 AM 66.2 °F 51.8 °F 60% 29.65 in 10.0 mi North 5.8 mph - 0.00 in   Clear
10:15 AM 69.8 °F 51.8 °F 53% 29.64 in 10.0 mi North 4.6 mph - 0.00 in   Clear
10:35 AM 73.4 °F 51.8 °F 47% 29.65 in 10.0 mi NE 3.5 mph - 0.00 in   Clear
10:55 AM 75.2 °F 48.2 °F 38% 29.65 in 10.0 mi West 4.6 mph - 0.00 in   Clear
11:15 AM 77.0 °F 48.2 °F 36% 29.66 in 10.0 mi NW 8.1 mph - 0.00 in   Clear
11:35 AM 78.8 °F 48.2 °F 34% 29.67 in 9.0 mi NNW 10.4 mph - 0.00 in   Clear
11:55 AM 80.6 °F 48.2 °F 32% 29.67 in 10.0 mi NNW 13.8 mph 19.6 mph 0.00 in   Clear
12:15 PM 78.8 °F 51.8 °F 39% 29.68 in 10.0 mi NNW 15.0 mph 18.4 mph 0.00 in   Clear
12:35 PM 78.8 °F 50.0 °F 36% 29.69 in 10.0 mi North 16.1 mph 24.2 mph 0.00 in   Clear
12:55 PM 78.8 °F 46.4 °F 32% 29.70 in 9.0 mi NNW 19.6 mph 26.5 mph 0.00 in   Clear
1:15 PM 78.8 °F 44.6 °F 30% 29.71 in 9.0 mi North 21.9 mph 27.6 mph 0.00 in   Clear
1:35 PM 78.8 °F 42.8 °F 28% 29.72 in 10.0 mi North 18.4 mph 27.6 mph 0.00 in   Clear
1:55 PM 80.6 °F 41.0 °F 24% 29.72 in 10.0 mi North 19.6 mph 28.8 mph 0.00 in   Clear
2:15 PM 80.6 °F 39.2 °F 23% 29.73 in 10.0 mi NNW 19.6 mph 27.6 mph 0.00 in   Clear
2:35 PM 80.6 °F 39.2 °F 23% 29.74 in 4.0 mi NNW 21.9 mph 27.6 mph 0.00 in   Clear
2:55 PM 80.6 °F 39.2 °F 23% 29.75 in 4.0 mi North 19.6 mph 28.8 mph 0.00 in   Clear
3:15 PM 80.6 °F 39.2 °F 23% 29.76 in 4.0 mi North 20.7 mph 28.8 mph 0.00 in   Clear
3:35 PM 78.8 °F 37.4 °F 23% 29.77 in 6.0 mi NNW 18.4 mph 25.3 mph 0.00 in   Clear
3:55 PM 78.8 °F 35.6 °F 21% 29.78 in 5.0 mi North 19.6 mph 25.3 mph 0.00 in   Clear
4:15 PM 77.0 °F 35.6 °F 22% 29.77 in 9.0 mi North 19.6 mph 24.2 mph 0.00 in   Clear
4:35 PM 75.2 °F 35.6 °F 24% 29.79 in 9.0 mi North 17.3 mph - 0.00 in   Clear
4:55 PM 75.2 °F 33.8 °F 22% 29.80 in 7.0 mi NNW 16.1 mph 24.2 mph 0.00 in   Clear
5:15 PM 75.2 °F 33.8 °F 22% 29.80 in 10.0 mi North 18.4 mph 23.0 mph 0.00 in   Clear
5:35 PM 75.2 °F 33.8 °F 22% 29.81 in 10.0 mi North 18.4 mph - 0.00 in   Clear
6:15 PM 75.2 °F 35.6 °F 24% 29.83 in 10.0 mi NNW 18.4 mph 24.2 mph 0.00 in   Clear
6:35 PM 73.4 °F 33.8 °F 23% 29.84 in 10.0 mi NNW 12.7 mph 19.6 mph 0.00 in   Clear
6:55 PM 73.4 °F 32.0 °F 22% 29.85 in 10.0 mi NNW 13.8 mph 19.6 mph 0.00 in   Clear
7:15 PM 71.6 °F 32.0 °F 23% 29.86 in 10.0 mi NNW 13.8 mph - 0.00 in   Clear
7:35 PM 69.8 °F 32.0 °F 25% 29.87 in 10.0 mi NNW 11.5 mph - 0.00 in   Clear
7:55 PM 68.0 °F 32.0 °F 26% 29.88 in 10.0 mi NNW 8.1 mph - 0.00 in   Clear
8:15 PM 64.4 °F 33.8 °F 32% 29.89 in 10.0 mi NNW 8.1 mph - 0.00 in   Clear
8:35 PM 62.6 °F 33.8 °F 34% 29.91 in 10.0 mi NNW 6.9 mph - 0.00 in   Clear
8:55 PM 62.6 °F 33.8 °F 34% 29.92 in 10.0 mi NW 11.5 mph - 0.00 in   Clear
9:15 PM 62.6 °F 32.0 °F 32% 29.93 in 10.0 mi NW 13.8 mph - 0.00 in   Clear
9:35 PM 62.6 °F 32.0 °F 32% 29.95 in 10.0 mi NW 13.8 mph - 0.00 in   Clear
9:55 PM 62.6 °F 32.0 °F 32% 29.96 in 10.0 mi NNW 11.5 mph - 0.00 in   Clear
10:15 PM 62.6 °F 32.0 °F 32% 29.96 in 10.0 mi NNW 12.7 mph - 0.00 in   Clear
10:35 PM 60.8 °F 32.0 °F 34% 29.97 in 10.0 mi NNW 10.4 mph - 0.00 in   Clear
10:55 PM 59.0 °F 32.0 °F 36% 29.98 in 10.0 mi NW 6.9 mph - 0.00 in   Clear
11:15 PM 59.0 °F 32.0 °F 36% 30.00 in 10.0 mi NW 4.6 mph - 0.00 in   Clear
11:35 PM 57.2 °F 32.0 °F 38% 29.99 in 10.0 mi NW 8.1 mph - 0.00 in   Clear
11:55 PM 57.2 °F 33.8 °F 41% 29.98 in 10.0 mi NW 8.1 mph - 0.00 in   Clear